World > North America > United States > Pennsylvania > Clay

Hourly Clay, PA Regional Weather

Feedback E-mail the Weather

Quick WX

Clay, PA Weather Maps

°F °C°F °C
Clay Weather Map
UTC Time: 8/19/2022, 10:52
Your Time:

Clay, PA Regional Weather

Expires:202208191000;;303994
ASUS41 KPHI 190913
RWRPHI

REGIONAL WEATHER ROUNDUP
NATIONAL WEATHER SERVICE MOUNT HOLLY NJ
500 AM EDT FRI AUG 19 2022

NOTE:  "FAIR" INDICATES FEW OR NO CLOUDS BELOW 12,000 FEET WITH NO
SIGNIFICANT WEATHER AND/OR OBSTRUCTIONS TO VISIBILITY.

 * = STATION DOES NOT REPORT PRECIPITATION (E.G. RAIN, SNOW, ETC.) 
        OR FOG.


PAZ043-044-047-054-055-060>062-066>071-191000-
EASTERN PENNSYLVANIA
  
CITY           SKY/WX    TMP DP  RH WIND       PRES   REMARKS
PHILADELPHIA   CLEAR     71  64  78 SW6       30.03S                  
NORTH PHILA    CLEAR     67  58  72 CALM      30.04R                  
BLUE BELL*     CLEAR     59  58  95 CALM      30.04S                  
DOYLESTOWN     CLEAR     61  56  83 CALM      30.03R                  
QUAKERTOWN*    CLEAR     57  57 100 CALM      30.05R                  
PERKASIE*      FAIR      55  55 100 CALM      30.05S                  
POTTSTOWN      CLEAR     58  56  93 CALM      30.05S                  
LANCASTER      CLEAR     63  58  83 E3        30.04R                  
COATESVILLE    CLEAR     64  59  82 W3        30.06R                  
READING        CLEAR     63  59  87 CALM      30.03R                  
ALLENTOWN      CLEAR     58  54  86 CALM      30.03S                  
QN CITY/ALNTWN FAIR      61  55  82 CALM      30.05R                  
MOUNT POCONO   CLEAR     54  52  93 W3        30.08R                  
HAZLETON       CLEAR     52  52 100 CALM      30.10S                  
LEHIGHTON      FAIR      52  50  93 CALM      30.06R                  
WILKES BARRE   CLEAR     59  55  87 E5        30.05R                  

$$

SKY/WX - Weather  TMP - Temperature  DP - Dew Point  RH - Humidity
WIND - Wind Direction/Speed PRES - Barometric Pressure VSB - Visibility
WCI - Wind Chill Index E13G22 Wind - East Wind 13 mph/Gusts of 22 mph

Trending Headlines

Clay Radar Loop



Clay Quick Facts


National Two Day Weather Forecast


E-mail the Clay Weather Forecast

Voice your opinion or tell us about page issues...